[TLELIST] Archives

 

[TLELIST] Current TLEs

August 15th 2023 PDT

HST 1 20580U 90037B 23226.15419503 .00004045 00000-0 20845-3 0 9992 2 20580 28.4679 242.1692 0002148 282.9879 123.2242 15.13741596630512 ISS (ZARYA) 1 25544U 98067A 23227.31989559 .00012486 00000-0 23147-3 0 9996 2 25544 51.6394 35.5707 0003382 311.4175 133.0827 15.49364312410967 CXO 1 25867U 99040B 23228.77773817 .00000776 00000-0 00000+0 0 9993 2 25867 37.3385 188.9910 9054604 268.8898 0.5129 0.37812847 24566 ...Continue Reading

[TLELIST] Current TLEs

August 14th 2023 PDT

HST 1 20580U 90037B 23226.15419503 .00004045 00000-0 20845-3 0 9992 2 20580 28.4679 242.1692 0002148 282.9879 123.2242 15.13741596630512 ISS (ZARYA) 1 25544U 98067A 23226.47108199 .00011850 00000-0 22027-3 0 9995 2 25544 51.6415 39.7703 0003570 304.8770 82.0979 15.49343316410837 CXO 1 25867U 99040B 23226.13274703 .00000670 00000-0 00000+0 0 9994 2 25867 37.3442 189.3398 9055551 268.5921 0.4574 0.37810294 24557 ...Continue Reading

[TLELIST] Current TLEs

August 13th 2023 PDT

HST 1 20580U 90037B 23224.79125075 .00004034 00000-0 20789-3 0 9993 2 20580 28.4681 251.2450 0002158 266.6751 257.4612 15.13731464630319 ISS (ZARYA) 1 25544U 98067A 23225.51503384 .00016273 00000-0 29947-3 0 9996 2 25544 51.6403 44.4989 0003352 304.3394 146.6746 15.49326028410681 CXO 1 25867U 99040B 23226.13274703 .00000670 00000-0 00000+0 0 9994 2 25867 37.3442 189.3398 9055551 268.5921 0.4574 0.37810294 24557 ...Continue Reading

[TLELIST] Current TLEs

August 12th 2023 PDT

HST 1 20580U 90037B 23223.46678292 .00003748 00000-0 19251-3 0 9993 2 20580 28.4684 260.0644 0002185 250.0038 242.1966 15.13720835630100 ISS (ZARYA) 1 25544U 98067A 23224.53735372 -.00006713 00000-0 -11261-3 0 9991 2 25544 51.6413 49.3437 0003589 294.6286 99.7565 15.49282127410539 CXO 1 25867U 99040B 23226.13274703 .00000670 00000-0 00000+0 0 9994 2 25867 37.3442 189.3398 9055551 268.5921 0.4574 0.37810294 24557 ...Continue Reading

[TLELIST] Current TLEs

August 11th 2023 PDT

HST 1 20580U 90037B 23222.19872660 .00004293 00000-0 22203-3 0 9994 2 20580 28.4687 268.5077 0002231 234.6817 173.6499 15.13712007629919 ISS (ZARYA) 1 25544U 98067A 23223.38180912 .00011362 00000-0 20597-3 0 9993 2 25544 51.6419 55.0567 0000198 64.7827 359.7010 15.50109250410354 CXO 1 25867U 99040B 23226.13240554 .00000670 00000-0 00000+0 0 9991 2 25867 37.3441 189.3399 9055558 268.5921 0.4117 0.37809783 24558 ...Continue Reading

[TLELIST] Current TLEs

August 11th 2023 PDT

HST 1 20580U 90037B 23222.19872660 .00004293 00000-0 22203-3 0 9994 2 20580 28.4687 268.5077 0002231 234.6817 173.6499 15.13712007629919 ISS (ZARYA) 1 25544U 98067A 23223.38180912 .00011362 00000-0 20597-3 0 9993 2 25544 51.6419 55.0567 0000198 64.7827 359.7010 15.50109250410354 CXO 1 25867U 99040B 23226.13240554 .00000670 00000-0 00000+0 0 9991 2 25867 37.3441 189.3399 9055558 268.5921 0.4117 0.37809783 24558 ...Continue Reading

[TLELIST] Current TLEs

August 10th 2023 PDT

HST 1 20580U 90037B 23222.19872660 .00004293 00000-0 22203-3 0 9994 2 20580 28.4687 268.5077 0002231 234.6817 173.6499 15.13712007629919 ISS (ZARYA) 1 25544U 98067A 23222.30481358 .00011329 00000-0 20556-3 0 9990 2 25544 51.6424 60.3943 0000248 35.3883 135.1170 15.50084455410182 CXO 1 25867U 99040B 23223.48771960 .00000538 00000-0 00000+0 0 9999 2 25867 37.3458 189.6655 9055898 268.3141 0.4119 0.37807653 24548 ...Continue Reading

[TLELIST] Current TLEs

August 9th 2023 PDT

HST 1 20580U 90037B 23220.63182493 .00004785 00000-0 24872-3 0 9999 2 20580 28.4691 278.9410 0002286 216.2168 276.5440 15.13699709629670 ISS (ZARYA) 1 25544U 98067A 23221.44875692 .00135227 00000-0 23301-2 0 9996 2 25544 51.6463 64.6422 0001774 89.5061 340.8342 15.50082477410052 CXO 1 25867U 99040B 23220.84471188 .00000447 00000-0 00000+0 0 9994 2 25867 37.3505 190.0476 9055618 267.9868 0.6525 0.37809863 24536 ...Continue Reading

[TLELIST] Current TLEs

August 8th 2023 PDT

HST 1 20580U 90037B 23219.51048814 .00004748 00000-0 24682-3 0 9990 2 20580 28.4693 286.4071 0002358 202.9626 287.1402 15.13689586629500 ISS (ZARYA) 1 25544U 98067A 23220.41567624 .00028376 00000-0 50240-3 0 9994 2 25544 51.6418 69.7562 0000378 91.7660 329.9765 15.50056344409893 CXO 1 25867U 99040B 23220.84471188 .00000447 00000-0 00000+0 0 9994 2 25867 37.3505 190.0476 9055618 267.9868 0.6525 0.37809863 24536 ...Continue Reading

[TLELIST] Current TLEs

August 7th 2023 PDT

HST 1 20580U 90037B 23218.24050132 .00004989 00000-0 25990-3 0 9995 2 20580 28.4694 294.8628 0002456 188.5871 207.2555 15.13677600629317 ISS (ZARYA) 1 25544U 98067A 23219.44910648 -.00010308 00000-0 -17293-3 0 9992 2 25544 51.6397 74.5498 0000375 3.2806 61.3283 15.50002991409743 CXO 1 25867U 99040B 23220.84471188 .00000447 00000-0 00000+0 0 9994 2 25867 37.3505 190.0476 9055618 267.9868 0.6525 0.37809863 24536 ...Continue Reading
  • This mailing list is a public mailing list - anyone may join or leave, at any time.
  • This mailing list is announce-only.

International Space Station (ISS) / Hubble Space Telescope (HST) / Chandra X-Ray Observatory Orbital Data via EMAIL

Privacy Policy:

Private list